Tracking 20621 objects as of 31-Mar-2020
HD Live streaming from Space Station
objects crossing your sky now

USA 136

Track USA 136 now!
USA 136 is classified as:


NORAD ID: 25034
Int'l Code: 1997-068A
Perigee: 4,149.8 km
Apogee: 36,224.6 km
Inclination: 63.4 °
Period: 717.9 minutes
Semi major axis: 26558 km
RCS: Unknown
Launch date: November 8, 1997
Source: United States (US)
Launch site: AIR FORCE EASTERN TEST RANGE (AFETR)

Signals intelligence; surveillance of cellular phones.
aabbcc
Your satellite tracking list
Your tracking list is empty




NASA's NSSDC Master Catalog

Two Line Element Set (TLE):
1 25034U 97068A   20054.07782888 -.00000248  00000-0  00000-0 0    01
2 25034  63.4263 144.9969 6038581 280.4982  20.3971  2.00588020    03
Source of the keplerian elements: McCants